Date,TemperatureHighF,TemperatureAvgF,TemperatureLowF,DewpointHighF,DewpointAvgF,DewpointLowF,HumidityHigh,HumidityAvg,HumidityLow,PressureMaxIn,PressureMinIn,WindSpeedMaxMPH,WindSpeedAvgMPH,GustSpeedMaxMPH,PrecipitationSumIn
2013-1-1,17,10,3,9,4,-1,86,78,63,30.31,30.20,6,0,6,0.00
2013-1-2,23,19,14,18,13,7,85,77,61,30.23,30.10,7,1,7,0.00
2013-1-3,27,22,12,22,18,8,89,84,80,30.28,30.10,12,2,12,0.00
2013-1-4,30,21,11,21,16,7,87,80,68,30.25,30.13,13,2,13,0.00
2013-1-5,35,26,15,33,23,13,93,88,81,30.26,29.90,10,1,10,0.01
2013-1-6,35,25,16,31,20,13,87,83,78,30.32,29.90,10,1,10,0.00
2013-1-7,36,26,14,27,21,11,88,80,68,30.31,30.07,14,1,14,0.00
2013-1-8,38,32,22,33,27,19,95,84,75,30.12,29.96,10,1,10,0.08
2013-1-9,41,34,26,32,27,22,87,77,57,30.49,29.95,12,2,12,0.15
2013-1-10,39,31,22,35,27,20,96,86,70,30.52,29.89,13,1,13,0.39
2013-1-11,46,40,35,45,39,34,99,98,94,29.89,29.60,9,1,9,0.05
2013-1-12,47,34,22,44,28,17,94,80,69,30.03,29.60,20,3,20,0.00
2013-1-13,22,18,13,18,11,6,83,75,66,30.26,29.93,11,2,11,0.00
2013-1-14,25,17,10,14,9,4,84,72,55,30.50,30.26,7,1,7,0.00
2013-1-15,30,20,12,17,14,10,89,75,53,30.47,30.12,10,1,10,0.00
2013-1-16,34,27,18,29,21,12,87,78,66,30.12,29.81,16,2,16,0.00
2013-1-17,30,22,17,23,11,5,79,62,47,30.44,30.10,9,1,9,0.00
2013-1-18,41,31,17,33,25,10,82,76,68,30.46,29.84,16,2,16,0.00
2013-1-19,47,37,17,35,28,6,86,71,44,30.00,29.66,21,3,21,0.00
2013-1-20,17,12,8,9,1,-1,79,62,50,30.36,30.00,12,2,12,0.00
2013-1-21,11,4,-2,2,-5,-10,82,65,54,30.36,30.19,14,2,14,0.00
2013-1-22,8,2,-5,-2,-6,-11,78,66,56,30.45,30.36,10,1,10,0.00
2013-1-23,19,12,4,15,5,-4,87,73,59,30.50,30.14,13,2,13,0.00
2013-1-24,17,8,0,10,0,-6,77,70,60,30.73,30.39,7,1,7,0.00
2013-1-25,26,20,14,18,13,8,87,75,62,30.40,29.98,12,2,12,0.00
2013-1-26,24,18,9,14,9,4,81,69,50,30.45,30.25,7,0,7,0.00
2013-1-27,33,28,23,32,23,14,96,82,67,30.38,29.87,10,1,10,0.02
2013-1-28,40,36,33,36,34,32,98,92,83,29.96,29.77,6,0,6,0.20
2013-1-29,52,42,35,52,42,34,100,98,96,29.80,29.49,6,0,6,0.72
2013-1-30,35,27,16,34,26,12,98,94,86,29.66,29.34,7,0,7,0.03
2013-1-31,16,10,2,13,6,-3,88,83,74,30.22,29.66,10,2,10,0.00